Weather observations for the past three days for
Brooksville-Tampa Bay Regional Airport
Imperial (Metric)
Date Time (edt) Wind (mph) Vis. (mi.) Weather Sky Cond. Temperature (ºF) Relative Humidity Wind Chill (°F) Heat Index (°F) Pressure Precipitation (in)
Air Dwpt 6 hour altimeter (in) sea level (mb) 1 hr 3 hr 6 hr
Max. Min.
24 10:53 E 8 10.00 Mostly Cloudy BKN017 84.9 73 68% 92 30.21 1022.7
24 09:53 SE 8 10.00 Partly Cloudy SCT011 82.9 68 61% 86 30.21 1022.7
24 08:53 E 5 10.00 Fair CLR 79 72 79% 82 30.21 1022.9
24 07:53 E 6 10.00 Fair CLR 75.9 73 77 75.9 91% 76 30.2 1022.3
24 06:53 Calm 10.00 Fair CLR 75.9 73.9 94% 75 30.19 1022.1
24 05:53 Calm 10.00 Fair CLR 75.2 0 0% 30.18 1021.8
24 04:53 Calm 10.00 Fair CLR 75.2 0 0% 30.18 1021.8
24 03:53 Calm 10.00 Fair CLR 75.2 0 0% 30.17 1021.4
24 02:53 E 5 10.00 Fair CLR 75.2 0 0% 30.18 1021.6
24 01:53 NE 3 10.00 Fair CLR 77 0 77 75 0% 30.18 1021.8 0.17
24 00:53 Calm 10.00 Fair CLR 75.2 0 0% 30.19 1022.1 0.01
23 23:53 SE 3 10.00 Light Rain BKN090 OVC100 75.2 0 0% 30.21 1022.6 0.02
23 22:53 NW 5 10.00 Light Rain SCT065 OVC090 75.2 0 0% 30.22 1023.0 0.02 0.14
23 21:53 SE 7 10.00 Light Rain CLR 75.2 0 0% 30.19 1021.9 0.06
23 20:53 E 3 10.00 Rain BKN100 75.2 0 0% 30.15 1020.7 0.06
23 19:53 E 8 10.00 Thunderstorm Light Rain BKN055 OVC080 75.2 0 95 75.9 0% 30.16 1020.9 0.74 2.3
23 18:53 S 17 G 28 1.00 Thunderstorm Heavy Rain BKN009 BKN017 OVC024 75.2 0 0% 30.15 1020.6 1.51
23 17:53 W 13 G 20 8.00 Heavy Rain FEW027 BKN070 OVC085 93 75 56% 104 30.06 1017.6 0.05
23 16:53 W 12 10.00 Mostly Cloudy FEW033 BKN048 BKN080 91.4 0 0% 30.08 1018.3
23 15:53 Calm 10.00 A Few Clouds FEW048 95 72 47% 103 30.08 1018.4
23 14:53 S 7 10.00 Fair CLR 93.9 70 46% 100 30.1 1019.2
23 13:53 Vrbl 7 10.00 A Few Clouds FEW038 93 70 93.9 78.1 47% 99 30.12 1019.8
23 12:53 S 7 10.00 A Few Clouds FEW039 93 68 44% 97 30.13 1020.1
23 10:53 S 3 10.00 Mostly Cloudy FEW025 SCT033 BKN044 86 68 55% 89 30.15 1020.6
23 09:53 S 3 10.00 Fair CLR 82 70 67% 86 30.14 1020.4
23 08:53 SE 7 10.00 Fair CLR 78.1 68 71% 80 30.14 1020.2
23 07:53 SE 5 10.00 Fair CLR 75.9 72 75.9 75 88% 76 30.12 1019.8
23 06:53 SE 3 10.00 Fair CLR 75.9 72 88% 76 30.1 1019.0
23 05:53 SE 3 10.00 Fair CLR 75.2 0 0% 30.09 1018.7
23 04:53 Calm 10.00 Fair CLR 75.2 0 0% 30.08 1018.3
23 03:53 Calm 10.00 Fair CLR 75.2 0 0% 30.06 1017.8
23 02:53 SE 3 10.00 Fair CLR 75.2 0 0% 30.07 1018.2
23 01:53 SE 3 10.00 Fair CLR 75.2 0 82.9 75 0% 30.08 1018.4
23 00:53 Calm 10.00 Fair CLR 75.2 0 0% 30.08 1018.3
22 23:53 S 5 10.00 Fair CLR 75.2 0 0% 30.08 1018.2
22 22:53 Calm 10.00 Fair CLR 77 0 0% 30.08 1018.4
22 21:53 Calm 10.00 Fair CLR 78.8 0 0% 30.07 1018.2
22 20:53 E 3 10.00 A Few Clouds FEW041 80.6 0 0% 30.06 1017.7
22 19:53 SE 8 10.00 Mostly Cloudy BKN028 BKN060 82.4 0 96.1 82.9 0% 30.04 1016.9
22 17:53 NW 7 10.00 Fair CLR 86 72 63% 92 30.01 1016.1
22 16:53 W 9 10.00 Thunderstorm in Vicinity CLR 86 0 0% 30.03 1016.7
22 15:53 NW 9 10.00 Thunderstorm SCT050 SCT060 89.6 0 0% 30.02 1016.4
22 14:53 SW 3 10.00 Partly Cloudy SCT044 SCT060 93.2 0 0% 30.03 1016.8
22 13:53 E 7 10.00 A Few Clouds FEW048 FEW070 93 72 93.9 79 50% 101 30.04 1016.9
22 12:53 Vrbl 3 10.00 Mostly Cloudy BKN038 BKN055 91.9 68 46% 96 30.06 1017.7
22 11:53 Calm 10.00 Fair CLR 91.4 0 0% 30.07 1018.0
22 10:53 SE 6 10.00 Fair CLR 89.1 70 53% 94 30.07 1018.1
22 09:53 E 6 10.00 Fair CLR 84.9 75 72% 93 30.07 1018.0
22 08:53 Calm 10.00 Fair CLR 82.4 0 0% 30.07 1018.1
22 07:53 Calm 10.00 Fair CLR 78.8 0 79 75 0% 30.05 1017.3
22 06:53 Calm 10.00 Fair CLR 75.2 0 0% 30.03 1016.6
22 05:53 Calm 10.00 Fair CLR 75.2 0 0% 30.02 1016.5
22 04:53 Calm 10.00 Fair CLR 75.2 0 0% 30.03 1016.5
22 03:53 Calm 10.00 Fair CLR 77 0 0% 30.04 1016.9
22 02:53 Calm 10.00 Fair CLR 78.8 0 0% 30.06 1017.5
22 01:53 E 5 10.00 A Few Clouds FEW040 78.8 0 84.9 78.1 0% 30.07 1017.9
22 00:53 Calm 10.00 Partly Cloudy FEW040 SCT050 80.6 0 0% 30.07 1018.1
21 23:53 SE 5 10.00 Fair CLR 78.8 0 0% 30.09 1018.8
21 22:53 Calm 10.00 A Few Clouds FEW045 80.6 0 0% 30.11 1019.3
21 21:53 E 5 10.00 Mostly Cloudy SCT038 BKN055 80.6 0 0% 30.1 1019.2
21 20:53 Calm 10.00 A Few Clouds FEW060 84.2 0 0% 30.06 1017.8
21 19:53 E 6 10.00 Fair CLR 84.2 0 96.1 82 0% 30.05 1017.2
21 18:53 NE 9 10.00 Partly Cloudy SCT050 SCT060 86 0 0% 30.04 1016.9
21 17:53 W 5 10.00 Fair CLR 84.2 0 0% 30.01 1015.8
21 16:53 S 9 10.00 Fair CLR 82.4 0 0% 30.02 1016.5
21 15:53 S 7 10.00 Fair CLR 93.2 0 0% 30.02 1016.3
21 14:53 Calm 10.00 Fair CLR 96.8 0 0% 30.03 1016.8
21 13:53 Vrbl 3 10.00 Partly Cloudy SCT046 93.2 0 93.9 78.1 0% 30.06 1017.8
21 12:53 E 3 10.00 Partly Cloudy SCT036 93.2 0 0% 30.08 1018.4
Date Time (edt) Wind (mph) Vis. (mi.) Weather Sky Cond. Air Dwpt Max. Min. Relative Humidity Wind Chill (°F) Heat Index (°F) altimeter (in) sea level (mb) 1 hr 3 hr 6 hr
6 hour
Temperature (ºF) Pressure Precipitation (in)